Willmar, MN

11:08 PM CST on November 21, 2019 (GMT -0600)
Willmar

Weather History for KBDH - October, 2019

Change the Weather History Date:

Sunday, October 20, 2019

  Actual Average (WUND) Record (WUND)
Temperature  
Mean Temperature 48 °F -  
Max Temperature 64 °F - - (-1)
Min Temperature 33 °F - - (-1)
Degree Days  
Heating Degree Days 16    
Moisture  
Dew Point 35 °F    
Average Humidity 59    
Maximum Humidity 93    
Minimum Humidity 32    
Precipitation  
Precipitation 0.00 in - - ()
Sea Level Pressure  
Sea Level Pressure 29.79 in    
Wind  
Wind Speed 5 mph ()    
Max Wind Speed 18 mph    
Max Gust Speed 28 mph    
Visibility 10.0 miles    
Events Rain    
Averages and records for this station are not official NWS values.
T = Trace of Precipitation, MM = Missing Value Source: Averaged Metar Reports

Daily Weather History Graph

Daily Weather History Graph

Search for Another Location

Airport or City:

Astronomy

Oct. 20, 2019 Rise Set
Actual Time 7:42 AM CDT 6:27 PM CDT
Civil Twilight 7:12 AM CDT 6:57 PM CDT
Nautical Twilight 6:38 AM CDT 7:31 PM CDT
Astronomical Twilight 6:04 AM CDT 8:05 PM CDT
Moon 11:26 PM CDT (10/20) 2:22 PM CDT (10/20)
Length of Visible Light 11h 44m
Length of Day
10h 44m
Waning Gibbous, 59% of the Moon is Illuminated
Oct 20
Waning Gibbous
Oct 21
Last Quarter
Oct 27
New
Nov 4
First Quarter
Nov 12
Full

Hourly Weather History & Observations

Time (CDT) Temp. Windchill Dew Point Humidity Pressure Visibility Wind Dir Wind Speed Gust Speed Precip Events Conditions
12:18 AM 39.2 °F - 32.0 °F 75% 29.77 in 10.0 mi Calm Calm - N/A   Clear
12:35 AM 37.4 °F - 32.0 °F 81% 29.76 in 10.0 mi Calm Calm - N/A   Clear
12:36 AM 37.4 °F - 32.0 °F 81% 29.77 in 10.0 mi Calm Calm - N/A   Clear
12:58 AM 39.2 °F - 32.0 °F 75% 29.76 in 10.0 mi Calm Calm - N/A   Clear
1:15 AM 37.4 °F - 32.0 °F 81% 29.76 in 10.0 mi Calm Calm - N/A   Clear
1:39 AM 39.2 °F - 32.0 °F 75% 29.76 in 10.0 mi Calm Calm - N/A   Clear
1:56 AM 35.6 °F - 30.2 °F 81% 29.76 in 10.0 mi Calm Calm - N/A   Clear
2:15 AM 37.4 °F - 33.8 °F 87% 29.76 in 10.0 mi Calm Calm - N/A   Clear
2:16 AM 37.4 °F - 33.8 °F 87% 29.76 in 10.0 mi Calm Calm - N/A   Clear
2:37 AM 39.2 °F 37.0 °F 33.8 °F 81% 29.77 in 10.0 mi SSE 3.5 mph - N/A   Clear
2:55 AM 39.2 °F 37.0 °F 32.0 °F 75% 29.77 in 10.0 mi SSE 3.5 mph - N/A   Clear
2:56 AM 39.2 °F 37.0 °F 32.0 °F 75% 29.77 in 10.0 mi SSE 3.5 mph - N/A   Clear
3:35 AM 35.6 °F - 30.2 °F 81% 29.78 in 10.0 mi Calm Calm - N/A   Clear
3:36 AM 35.6 °F - 30.2 °F 81% 29.78 in 10.0 mi Calm Calm - N/A   Clear
3:58 AM 35.6 °F - 32.0 °F 87% 29.78 in 10.0 mi Calm Calm - N/A   Clear
4:15 AM 35.6 °F - 32.0 °F 87% 29.79 in 10.0 mi Calm Calm - N/A   Clear
4:16 AM 35.6 °F - 33.8 °F 93% 29.79 in 10.0 mi Calm Calm - N/A   Clear
4:38 AM 35.6 °F - 32.0 °F 87% 29.79 in 10.0 mi Calm Calm - N/A   Clear
4:56 AM 35.6 °F - 32.0 °F 87% 29.80 in 10.0 mi Calm Calm - N/A   Clear
5:15 AM 35.6 °F - 32.0 °F 87% 29.80 in 10.0 mi Calm Calm - N/A   Clear
5:16 AM 35.6 °F - 32.0 °F 87% 29.80 in 10.0 mi Calm Calm - N/A   Clear
5:37 AM 33.8 °F - 30.2 °F 87% 29.80 in 10.0 mi Calm Calm - N/A   Clear
5:55 AM 35.6 °F - 32.0 °F 87% 29.80 in 10.0 mi Calm Calm - N/A   Clear
5:56 AM 35.6 °F - 32.0 °F 87% 29.80 in 10.0 mi Calm Calm - N/A   Clear
6:18 AM 35.6 °F - 32.0 °F 87% 29.81 in 10.0 mi Calm Calm - N/A   Clear
6:35 AM 37.4 °F - 33.8 °F 87% 29.81 in 10.0 mi Calm Calm - N/A   Clear
6:56 AM 35.6 °F 31.7 °F 33.8 °F 93% 29.82 in 10.0 mi ESE 4.6 mph - N/A   Clear
7:17 AM 35.6 °F 32.8 °F 33.8 °F 93% 29.82 in 10.0 mi ESE 3.5 mph - N/A   Clear
7:35 AM 35.6 °F 32.8 °F 32.0 °F 87% 29.83 in 10.0 mi East 3.5 mph - N/A   Clear
7:36 AM 35.6 °F 32.8 °F 32.0 °F 87% 29.83 in 10.0 mi East 3.5 mph - N/A   Clear
7:57 AM 35.6 °F 32.8 °F 32.0 °F 87% 29.83 in 10.0 mi East 3.5 mph - N/A   Clear
8:15 AM 37.4 °F 34.9 °F 33.8 °F 87% 29.83 in 10.0 mi ESE 3.5 mph - N/A   Clear
8:16 AM 37.4 °F 34.9 °F 33.8 °F 87% 29.83 in 10.0 mi ESE 3.5 mph - N/A   Scattered Clouds
8:38 AM 39.2 °F 37.0 °F 35.6 °F 87% 29.84 in 10.0 mi SE 3.5 mph - N/A   Clear
8:55 AM 41.0 °F 38.0 °F 35.6 °F 81% 29.83 in 10.0 mi East 4.6 mph - N/A   Clear
9:15 AM 44.6 °F 41.4 °F 37.4 °F 76% 29.83 in 10.0 mi ESE 5.8 mph - N/A   Clear
9:16 AM 46.4 °F 43.5 °F 37.4 °F 71% 29.83 in 10.0 mi ESE 5.8 mph - N/A   Clear
9:37 AM 48.2 °F - 37.4 °F 66% 29.82 in 10.0 mi ESE 6.9 mph - N/A   Clear
10:18 AM 53.6 °F - 37.4 °F 54% 29.83 in 10.0 mi SE 10.4 mph - N/A   Clear
10:35 AM 55.4 °F - 37.4 °F 51% 29.83 in 10.0 mi SE 10.4 mph - N/A   Clear
10:55 AM 57.2 °F - 37.4 °F 48% 29.84 in 10.0 mi SE 8.1 mph - N/A   Clear
10:59 AM 57.2 °F - 37.4 °F 48% 29.84 in 10.0 mi ESE 6.9 mph - N/A   Clear
11:16 AM 60.8 °F - 37.4 °F 42% 29.84 in 10.0 mi SE 11.5 mph - N/A   Clear
11:35 AM 62.6 °F - 35.6 °F 37% 29.84 in 10.0 mi SE 12.7 mph 17.3 mph N/A   Clear
11:36 AM 62.6 °F - 35.6 °F 37% 29.84 in 10.0 mi SE 12.7 mph 17.3 mph N/A   Clear
11:57 AM 62.6 °F - 35.6 °F 37% 29.84 in 10.0 mi SSE 10.4 mph - N/A   Clear
12:15 PM 62.6 °F - 35.6 °F 37% 29.84 in 10.0 mi SSE 10.4 mph - N/A   Clear
12:16 PM 62.6 °F - 35.6 °F 37% 29.84 in 10.0 mi SE 10.4 mph - N/A   Clear
12:38 PM 64.4 °F - 35.6 °F 34% 29.84 in 10.0 mi SSE 8.1 mph 16.1 mph N/A   Clear
12:55 PM 64.4 °F - 33.8 °F 32% 29.84 in 10.0 mi SSE 6.9 mph 10.4 mph N/A   Clear
1:15 PM 62.6 °F - 33.8 °F 34% 29.83 in 10.0 mi SSE 11.5 mph - N/A   Clear
1:16 PM 62.6 °F - 33.8 °F 34% 29.83 in 10.0 mi SSE 10.4 mph - N/A   Clear
1:36 PM 62.6 °F - 35.6 °F 37% 29.82 in 10.0 mi SE 8.1 mph - N/A   Clear
1:55 PM 62.6 °F - 35.6 °F 37% 29.82 in 10.0 mi SSE 12.7 mph - N/A   Clear
1:56 PM 62.6 °F - 35.6 °F 37% 29.81 in 10.0 mi SSE 10.4 mph - N/A   Clear
2:17 PM 62.6 °F - 35.6 °F 37% 29.81 in 10.0 mi SE 8.1 mph - N/A   Clear
2:35 PM 62.6 °F - 35.6 °F 37% 29.81 in 10.0 mi SE 5.8 mph - N/A   Clear
2:36 PM 62.6 °F - 35.6 °F 37% 29.81 in 10.0 mi SE 5.8 mph - N/A   Clear
2:57 PM 64.4 °F - 35.6 °F 34% 29.81 in 10.0 mi SSE 5.8 mph - N/A   Clear
3:15 PM 62.6 °F - 35.6 °F 37% 29.80 in 10.0 mi SE 9.2 mph - N/A   Clear
3:16 PM 62.6 °F - 35.6 °F 37% 29.80 in 10.0 mi SE 8.1 mph - N/A   Clear
3:37 PM 62.6 °F - 37.4 °F 39% 29.80 in 10.0 mi SE 9.2 mph - N/A   Clear
3:55 PM 62.6 °F - 37.4 °F 39% 29.80 in 10.0 mi ESE 8.1 mph - N/A   Clear
3:56 PM 62.6 °F - 37.4 °F 39% 29.80 in 10.0 mi SE 6.9 mph - N/A   Clear
4:17 PM 62.6 °F - 37.4 °F 39% 29.80 in 10.0 mi SE 9.2 mph - N/A   Clear
4:35 PM 64.4 °F - 37.4 °F 37% 29.80 in 10.0 mi SE 10.4 mph - N/A   Clear
4:36 PM 64.4 °F - 37.4 °F 37% 29.80 in 10.0 mi SE 10.4 mph - N/A   Clear
4:57 PM 62.6 °F - 37.4 °F 39% 29.79 in 10.0 mi ESE 9.2 mph - N/A   Clear
5:15 PM 62.6 °F - 37.4 °F 39% 29.78 in 10.0 mi ESE 9.2 mph - N/A   Clear
5:16 PM 62.6 °F - 37.4 °F 39% 29.78 in 10.0 mi ESE 10.4 mph - N/A   Clear
5:37 PM 60.8 °F - 37.4 °F 42% 29.78 in 10.0 mi ESE 8.1 mph - N/A   Clear
5:55 PM 60.8 °F - 39.2 °F 45% 29.78 in 10.0 mi ESE 6.9 mph - N/A   Clear
5:56 PM 60.8 °F - 39.2 °F 45% 29.78 in 10.0 mi ESE 6.9 mph - N/A   Clear
6:17 PM 57.2 °F - 39.2 °F 51% 29.77 in 10.0 mi East 6.9 mph - N/A   Clear
6:35 PM 57.2 °F - 39.2 °F 51% 29.76 in 10.0 mi East 8.1 mph - N/A   Clear
6:36 PM 57.2 °F - 39.2 °F 51% 29.76 in 10.0 mi East 8.1 mph - N/A   Clear
6:57 PM 57.2 °F - 39.2 °F 51% 29.76 in 10.0 mi East 10.4 mph - N/A   Clear
7:15 PM 57.2 °F - 39.2 °F 51% 29.76 in 10.0 mi East 10.4 mph - N/A   Clear
7:16 PM 57.2 °F - 39.2 °F 51% 29.76 in 10.0 mi East 10.4 mph - N/A   Clear
7:37 PM 57.2 °F - 39.2 °F 51% 29.76 in 10.0 mi East 11.5 mph - N/A   Clear
7:55 PM 57.2 °F - 37.4 °F 48% 29.76 in 10.0 mi ESE 11.5 mph 16.1 mph N/A   Clear
7:56 PM 57.2 °F - 37.4 °F 48% 29.76 in 10.0 mi ESE 13.8 mph - N/A   Clear
8:17 PM 57.2 °F - 37.4 °F 48% 29.76 in 10.0 mi ESE 12.7 mph 18.4 mph N/A   Clear
8:35 PM 57.2 °F - 37.4 °F 48% 29.76 in 10.0 mi ESE 12.7 mph - N/A   Clear
8:36 PM 57.2 °F - 37.4 °F 48% 29.76 in 10.0 mi ESE 12.7 mph - N/A   Clear
8:57 PM 57.2 °F - 37.4 °F 48% 29.74 in 10.0 mi ESE 15.0 mph - N/A   Scattered Clouds
9:15 PM 57.2 °F - 37.4 °F 48% 29.74 in 10.0 mi ESE 13.8 mph 20.7 mph N/A   Clear
9:16 PM 57.2 °F - 37.4 °F 48% 29.74 in 10.0 mi ESE 13.8 mph 23.0 mph N/A   Clear
9:37 PM 57.2 °F - 37.4 °F 48% 29.73 in 10.0 mi ESE 15.0 mph 20.7 mph N/A   Scattered Clouds
9:55 PM 57.2 °F - 37.4 °F 48% 29.74 in 10.0 mi ESE 16.1 mph 20.7 mph N/A   Scattered Clouds
9:56 PM 57.2 °F - 37.4 °F 48% 29.74 in 10.0 mi ESE 16.1 mph 20.7 mph N/A   Scattered Clouds
10:17 PM 57.2 °F - 37.4 °F 48% 29.74 in 10.0 mi ESE 12.7 mph 21.9 mph N/A   Scattered Clouds
10:35 PM 57.2 °F - 35.6 °F 44% 29.73 in 10.0 mi ESE 18.4 mph 27.6 mph N/A   Scattered Clouds
10:36 PM 57.2 °F - 35.6 °F 44% 29.73 in 10.0 mi ESE 17.3 mph 27.6 mph N/A   Scattered Clouds
10:57 PM 57.2 °F - 35.6 °F 44% 29.73 in 10.0 mi ESE 12.7 mph 17.3 mph N/A   Scattered Clouds
11:15 PM 57.2 °F - 37.4 °F 48% 29.73 in 10.0 mi ESE 11.5 mph 17.3 mph N/A   Scattered Clouds
11:16 PM 57.2 °F - 37.4 °F 48% 29.73 in 10.0 mi ESE 11.5 mph 17.3 mph N/A   Scattered Clouds
11:35 PM 57.2 °F - 39.2 °F 51% 29.74 in 10.0 mi ESE 9.2 mph 17.3 mph N/A   Scattered Clouds
11:39 PM 57.2 °F - 39.2 °F 51% 29.74 in 10.0 mi ESE 10.4 mph - N/A   Scattered Clouds
11:55 PM 55.4 °F - 39.2 °F 54% 29.73 in 10.0 mi ESE 8.1 mph - N/A Rain Light Rain